Location: Ithaca
(42.4410°N, 76.4970°W)
Time: 20:39:34
(UTC-04:00)

ISS - Visible Passes

Search period start: 24 July 2017 00:00
Search period end: 03 August 2017 00:00
Orbit: 400 x 408 km, 51.6° (Epoch: 25 July)

Date Brightness Start Highest point End Pass type
(mag) Time Alt. Az. Time Alt. Az. Time Alt. Az.
24 Jul -0.7 01:12:42 10° NW 01:14:50 16° N 01:16:58 10° NE visible
24 Jul -1.6 02:49:15 10° NW 02:52:06 27° NNE 02:54:57 10° E visible
24 Jul -3.8 04:25:32 10° WNW 04:28:44 53° SW 04:31:55 10° SE visible
24 Jul -3.0 21:05:46 10° SSW 21:08:40 31° SE 21:11:35 10° ENE visible
24 Jul -2.2 22:42:03 10° W 22:45:06 36° NNW 22:48:09 10° NE visible
25 Jul -0.8 00:20:02 10° NW 00:22:14 17° N 00:24:27 10° NE visible
25 Jul -1.2 01:57:01 10° NW 01:59:35 21° NNE 02:02:09 10° ENE visible
25 Jul -3.9 03:33:10 10° NW 03:36:26 81° NE 03:39:42 10° ESE visible
25 Jul -1.9 05:11:05 10° WSW 05:12:29 12° SW 05:13:53 10° SSW visible
25 Jul -3.3 21:49:28 10° WSW 21:52:41 60° NNW 21:55:55 10° NE visible
25 Jul -1.0 23:27:14 10° WNW 23:29:39 19° NNW 23:32:04 10° NE visible
26 Jul -0.9 01:04:42 10° NW 01:06:55 18° N 01:06:55 18° N visible
26 Jul -3.9 20:57:06 10° SW 21:00:19 75° SE 21:03:35 10° ENE visible
26 Jul -1.3 22:34:23 10° WNW 22:37:05 23° NNW 22:39:47 10° NE visible
27 Jul -0.8 00:12:14 10° NW 00:14:23 16° N 00:15:41 13° NNE visible
27 Jul -1.9 21:41:35 10° W 21:44:33 32° NNW 21:47:32 10° NE visible
27 Jul -0.8 23:19:35 10° NW 23:21:45 16° N 23:23:55 10° NE visible
28 Jul -0.8 00:56:25 10° NW 00:57:20 15° NNW 00:57:20 15° NNW visible
28 Jul -1.0 22:26:47 10° NW 22:29:07 18° N 22:31:27 10° NE visible
29 Jul -1.1 00:04:05 10° NW 00:06:28 18° N 00:06:28 18° N visible
29 Jul -1.2 21:33:54 10° WNW 21:36:30 21° NNW 21:39:06 10° NE visible
29 Jul -1.0 23:11:39 10° NW 23:13:49 16° N 23:15:39 12° NE visible
30 Jul -0.6 00:47:57 10° NW 00:48:16 12° NW 00:48:16 12° NW visible
30 Jul -0.9 22:19:01 10° NW 22:21:09 16° N 22:23:17 10° NE visible
30 Jul -1.2 23:55:41 10° NW 23:57:28 21° N 23:57:28 21° N visible
31 Jul -1.0 21:26:13 10° NW 21:28:28 17° N 21:30:44 10° NE visible
31 Jul -1.5 23:03:21 10° NW 23:05:49 19° NNE 23:06:42 18° NE visible
01 Aug -1.2 22:10:54 10° NW 22:13:08 17° N 22:15:22 10° NE visible
01 Aug -1.3 23:47:09 10° NW 23:48:34 22° NNW 23:48:34 22° NNW visible
02 Aug -1.1 21:18:18 10° NW 21:20:26 16° N 21:22:34 10° NE visible
02 Aug -2.1 22:54:49 10° NW 22:57:41 27° NNE 22:57:49 27° NNE visible
